Pocatello, ID

11:38 PM MST on February 20, 2017 (GMT -0700)
Pocatello Regional

Weather History for KPIH - September, 2014

Change the Weather History Date:

Saturday, September 13, 2014

  Actual Average Record
Temperature  
Mean Temperature 58 °F 60 °F  
Max Temperature 83 °F 77 °F 94 °F (1948)
Min Temperature 33 °F 43 °F 26 °F (1949)
Degree Days  
Heating Degree Days 7 6  
Month to date heating degree days 81 51  
Since 1 July heating degree days 116 97  
Cooling Degree Days 0 1  
Month to date cooling degree days 4 18  
Year to date cooling degree days 390 388  
Growing Degree Days 8 (Base 50)    
Moisture  
Dew Point 28 °F    
Average Humidity 42    
Maximum Humidity 70    
Minimum Humidity 14    
Precipitation  
Precipitation 0.00 in 0.03 in 0.49 in (1980)
Month to date precipitation 0.00 0.34  
Year to date precipitation 8.78 8.41  
Snow  
Snow 0.00 in - - ()
Month to date snowfall 0.0  
Since 1 July snowfall 0.0  
Since 1 September snowfall 0.0  
Snow Depth 0.00 in    
Sea Level Pressure  
Sea Level Pressure 29.98 in    
Wind  
Wind Speed 5 mph (NW)    
Max Wind Speed 17 mph    
Max Gust Speed 21 mph    
Visibility 10 miles    
Events      
T = Trace of Precipitation, MM = Missing Value Source: NWS Daily Summary

Daily Weather History Graph

Daily Weather History Graph

Search for Another Location

Airport or City:

Trip Planner

Search our weather history database for the weather conditions in past years. The results will help you decide how hot, cold, wet, or windy it might be!

Date:

Astronomy

Sep. 13, 2014 Rise Set
Actual Time 7:08 AM MDT 7:43 PM MDT
Civil Twilight 6:39 AM MDT 8:12 PM MDT
Nautical Twilight 6:05 AM MDT 8:45 PM MDT
Astronomical Twilight 5:30 AM MDT 9:20 PM MDT
Moon 10:43 PM MDT (9/13) 12:26 PM MDT (9/13)
Length of Visible Light 13h 32m
Length of Day
12h 35m
Waning Gibbous, 73% of the Moon is Illuminated
Sep 13
Waning Gibbous
Sep 15
Last Quarter
Sep 24
New
Oct 1
First Quarter
Oct 8
Full

Hourly Weather History & Observations

Time (MDT) Temp. Windchill Dew Point Humidity Pressure Visibility Wind Dir Wind Speed Gust Speed Precip Events Conditions
12:53 AM 42.1 °F 37.7 °F 24.1 °F 49% 30.04 in 10.0 mi NW 6.9 mph - N/A   Clear
1:53 AM 41.0 °F 37.1 °F 24.1 °F 51% 30.04 in 10.0 mi North 5.8 mph - N/A   Clear
2:53 AM 42.1 °F 38.4 °F 23.0 °F 47% 30.03 in 10.0 mi NNE 5.8 mph - N/A   Clear
3:53 AM 39.0 °F 36.8 °F 25.0 °F 57% 30.05 in 10.0 mi ENE 3.5 mph - N/A   Clear
4:53 AM 42.1 °F - 25.0 °F 51% 30.04 in 10.0 mi Calm Calm - N/A   Clear
5:53 AM 36.0 °F 30.3 °F 25.0 °F 64% 30.06 in 10.0 mi NNE 6.9 mph - N/A   Clear
6:53 AM 36.0 °F 33.3 °F 26.1 °F 67% 30.07 in 10.0 mi NE 3.5 mph - N/A   Clear
7:53 AM 37.9 °F - 28.0 °F 68% 30.09 in 10.0 mi Calm Calm - N/A   Clear
8:53 AM 44.1 °F 42.5 °F 30.0 °F 58% 30.10 in 10.0 mi NNW 3.5 mph - N/A   Clear
9:53 AM 53.1 °F - 28.9 °F 40% 30.08 in 10.0 mi Calm Calm - N/A   Clear
10:53 AM 63.0 °F - 30.0 °F 29% 30.06 in 10.0 mi North 5.8 mph - N/A   Clear
11:53 AM 69.1 °F - 30.0 °F 23% 30.03 in 10.0 mi North 8.1 mph - N/A   Clear
12:53 PM 73.9 °F - 30.0 °F 20% 30.00 in 10.0 mi Variable 3.5 mph - N/A   Clear
1:53 PM 78.1 °F - 30.0 °F 17% 29.96 in 10.0 mi Variable 3.5 mph - N/A   Clear
2:53 PM 81.0 °F - 28.9 °F 15% 29.93 in 10.0 mi NNW 3.5 mph - N/A   Clear
3:53 PM 82.0 °F - 30.9 °F 16% 29.91 in 10.0 mi North 4.6 mph - N/A   Clear
4:53 PM 82.0 °F - 28.9 °F 14% 29.89 in 10.0 mi SW 8.1 mph - N/A   Clear
5:53 PM 82.0 °F - 28.9 °F 14% 29.90 in 10.0 mi NW 6.9 mph - N/A   Clear
6:53 PM 79.0 °F - 28.0 °F 15% 29.88 in 10.0 mi WSW 5.8 mph - N/A   Clear
7:53 PM 73.0 °F - 30.9 °F 21% 29.89 in 10.0 mi SW 4.6 mph - N/A   Clear
8:53 PM 64.0 °F - 30.9 °F 29% 29.91 in 10.0 mi South 9.2 mph - N/A   Clear
9:53 PM 66.9 °F - 30.0 °F 25% 29.88 in 10.0 mi South 10.4 mph - N/A   Clear
10:53 PM 62.1 °F - 30.0 °F 30% 29.88 in 10.0 mi SSW 3.5 mph - N/A   Clear
11:53 PM 57.0 °F - 30.0 °F 36% 29.88 in 10.0 mi SSW 3.5 mph - N/A   Clear